Regional Weather Roundup
Issued by NWS Newport/Morehead, NC

Current Version | Previous Version | Text Only | Print | Product List | Glossary On
Versions: 1 2 3 4 5 6 7 8 9 10 11 12 13 14 15 16 17 18 19 20 21 22 23 24 25 26 27 28 29 30 31 32 33 34 35 36 37 38 39 40 41 42 43 44 45 46 47 48 49 50
000
ASUS42 KMHX 280426
RWRMHX
WEATHER ROUNDUP FOR EASTERN NORTH CAROLINA
NATIONAL WEATHER SERVICE NEWPORT/MOREHEAD CITY NC
1200 AM EDT WED JUN 28 2017

NOTE: "FAIR" INDICATES FEW OR NO CLOUDS BELOW 12,000 FEET
WITH NO SIGNIFICANT WEATHER AND/OR OBSTRUCTIONS TO VISIBILITY

NCZ015>017-031-032-045>047-102-103-280500-
NORTH COAST

CITY           SKY/WX    TMP DP  RH WIND       PRES   REMARKS
EDENTON        CLEAR     68  61  79 CALM      30.08R
ELIZABETH CITY CLEAR     66  66 100 W3        30.07R
KITTY HAWK     PTCLDY    70  65  85 CALM      30.05R
MANTEO         CLEAR     68  65  90 CALM      30.06R

$$

NCZ045>047-081-094-103-104-280500-
CENTRAL COAST

CITY           SKY/WX    TMP DP  RH WIND       PRES   REMARKS
FRISCO         NOT AVBL

$$

NCZ095-097-098-100-101-280500-
SOUTHERN COAST

CITY           SKY/WX    TMP DP  RH WIND       PRES   REMARKS
BEAUFORT       CLOUDY    78  68  71 NW9       30.06R
CEDAR ISLAND   NOT AVBL
JACKSONVILLE   CLOUDY    76  63  64 N10       30.07R
PINEY ISLAND   CLOUDY   N/A N/A N/A NW10      30.06R
WILMINGTON     CLOUDY    75  67  76 W5        30.07R


$$

NCZ011>013-027>030-043-044-078>080-089-090>093-098-280500-
COASTAL PLAIN

CITY           SKY/WX    TMP DP  RH WIND       PRES   REMARKS
AHOSKIE          N/A     64  56  76 CALM      30.08R
CLINTON        CLEAR     67  61  81 CALM      30.10R
ELIZABETHTOWN  NOT AVBL
GOLDSBORO      CLEAR     68  63  83 CALM      30.07R
GREENVILLE     CLEAR     64  59  82 CALM      30.09S
HAVELOCK       CLOUDY    76  59  55 N12       30.08
KENANSVILLE    CLEAR     66  61  82 CALM      30.09R
KINSTON        CLEAR     65  60  84 CALM      30.09R
NEW BERN       CLEAR     71  61  70 N7        30.09R
RICHLANDS      MOCLDY    72  63  73 N3        30.09R
ROCKY MOUNT    CLEAR     64  61  90 CALM      30.09R
WASHINGTON     CLEAR    N/A N/A N/A CALM      30.08R
WHITEVILLE     CLOUDY    73  65  76 N3        30.08R

$$

AMZ130-135-150-152-154-156-158-170-250-252-270-ANZ085-086-088-633-658-670-280500-
MARINE OBSERVATIONS

STATION/POSITION TIME  TEMP    WIND        PRES    WAVE   SWELL
                       AIR SEA DIR/SP/G            HT/PER HT/PER
                 (UTC) (F)     (DEG/KT/KT) (MB)    (FT/S) (FT/S)
CHESAPEAKE LIGHT NOT AVBL
64 E VA BEACH    0350   73 74  290/  4/  4 1017.7    1/ 8   2/ 8
DUCK             0400   73 74  350/  1/  2 1017.4
2 E DUCK         NOT AVBL
OREGON INLET     0400   72 80   10/  6/  8 1017.5
13E OREGON INLT  0348      74                N/A     2/ 8   2/ 8
HATTERAS CG      0400   79 80  330/ 13/ 16 1017.3
DIAMOND BUOY     0350   80 81  260/ 10/ 12 1016.9    2/ 7   2/ 7
CAPE LOOKOUT     0400   79     310/  8/ 11 1017.6
BEAUFORT LAB     0400   78 79  300/  5/  7 1017.2
30 SE NEW RVR IN 0408   80 81  300/  8/ 12 1017.8
30 SE NEW RVR IN 0413      81                N/A     2/ 8
27 SE WRIGHTSVLE 0408   80 81  270/  8/ 10 1017.2
5 SE WRIGHTSVLE  0408   78 80  300/  8/ 12 1017.8
225 S CAPE HAT   0350   78 80  200/  4/  6 1017.5    3/ 6   3/ 6
41 SE CHARLESTON 0400   80 81   80/  4/  4 1017.0

$$



USA.gov is the U.S. government's official web portal to all federal, state and local government web resources and services.